089  
ASUS44 KSHV 240310  
RWRSHV  
 
WEATHER ROUNDUP FOR THE FOUR STATE AREA  
NATIONAL WEATHER SERVICE SHREVEPORT LA  
900 PM CST FRI FEB 23 2018  
 
NOTE: "FAIR" INDICATES FEW OR NO CLOUDS BELOW 12000 FEET  
WITH NO SIGNIFICANT WEATHER AND/OR S TO VISIBILITY
.  
 
!LAZ001-LAZ014-TXZ097-240400  
SHREVEPORT...MONROE...TEXARKANA RADIOS  
 
CITY SKY/WX TMP DP RH WIND PRES REMARKS
 
SHREVEPORT PTCLDY 66 66 100 SE5 30.05S  
MONROE MOCLDY 68 66 93 VRB3 30.11S  
NATCHITOCHES N/A 69 65 87 S6 30.09S  
TEXARKANA CLOUDY 61 61 100 E5 30.06F FOG  

 
 
!LAZ001-LAZ014-TXZ097-240400  
OTHER LOCATIONS...  
 
CITY SKY/WX TMP DP RH WIND PRES REMARKS
 
DOWNTOWN SHV CLEAR 66 64 93 E6 30.05F  
BOSSIER CITY N/A 64 64 100 SE3 30.05F  
RUSTON N/A 67 65 91 SE5 30.13S  
LITTLE ROCK LGT RAIN 51 51 100 E3 30.14F  
EL DORADO CLOUDY 63 63 100 E6 30.09F  
JACKSON CLOUDY 67 67 100 SE7 30.16S  
NEW ORLEANS N/A 72 70 93 SE8 30.17S  
HOUSTON MOCLDY 71 69 93 SE9 30.05S  
LUFKIN CLEAR 68 65 90 SE9 30.05S  
TYLER PTCLDY 59 59 100 E3 30.03F FOG  
DAL FT WORTH LGT RAIN 49 47 93 NW7 30.03F FOG  

 
 
!TXZ136-TXZ165-240400  
TYLER...LUFKIN RADIOS  
 
CITY SKY/WX TMP DP RH WIND PRES REMARKS
 
TYLER PTCLDY 59 59 100 E3 30.03F FOG  
GILMER CLOUDY 60 60 100 CALM 30.04S FOG  
LONGVIEW CLEAR 64 64 100 SE6 30.03S  
LUFKIN CLEAR 68 65 90 SE9 30.05S  

 
 
!TXZ136-TXZ165-240400  
OTHER LOCATIONS...  
 
CITY SKY/WX TMP DP RH WIND PRES REMARKS
 
NACOGDOCHES CLEAR 69 63 81 SE7 30.06S  
BEAUMONT CLOUDY 72 69 90 S12 30.08S  
HOUSTON MOCLDY 71 69 93 SE9 30.05S  
COLLEGE STN CLEAR 64 62 93 SE5 30.03R  
AUSTIN CLOUDY 60 60 100 NE3 30.00S  
DAL FT WORTH LGT RAIN 49 47 93 NW7 30.03F FOG  
TEXARKANA CLOUDY 61 61 100 E5 30.06F FOG  
SHREVEPORT PTCLDY 66 66 100 SE5 30.05S  
FORT POLK N/A 71 67 88 S9 30.09S  
LAKE CHARLES CLOUDY 73 71 93 S9 30.10S  

 
 
 
CLICK HERE TO GO TO PREVIOUS BULLETINS.

The Nexlab LA Page
The Nexlab TX Page
The Nexlab AR Page
The Nexlab OK Page Main Text Page